IW4DZV-13 Weather Reports


Display with metric or nautical units.
time (UTC)temp
F
wind
direction
speed
MPH
gust
MPH
rain 1hr
in
rain 24hr
in
rain mn
in
humidity
%
barometer
mb
20260906101551 86 360 0.0 0.0 0.00 0.00 0.00 60 1020.7
20260906100058 86 360 1.0 0.0 0.00 0.00 0.00 60 1020.7
20260906094551 86 360 1.0 0.0 0.00 0.00 0.00 62 1020.9
20260906093050 85 360 1.0 0.0 0.00 0.00 0.00 63 1020.8
20260906091548 85 360 1.0 0.0 0.00 0.00 0.00 63 1020.9
20260906090044 85 360 0.0 0.0 0.00 0.00 0.00 64 1020.9
20260906084541 84 360 0.0 0.0 0.00 0.00 0.00 68 1020.9
20260906083038 83 360 1.0 0.0 0.00 0.00 0.00 67 1020.8
20260906081535 82 360 0.0 0.0 0.00 0.00 0.00 69 1020.9
20260906080034 81 360 0.0 0.0 0.00 0.00 0.00 68 1020.7
20260906074530 80 360 0.0 0.0 0.00 0.00 0.00 69 1020.7
20260906073026 79 360 1.0 0.0 0.00 0.00 0.00 69 1020.5
20260906071522 78 360 0.0 0.0 0.00 0.00 0.00 73 1020.4
20260906070023 76 360 0.0 0.0 0.00 0.00 0.00 73 1020.4
20260906064517 75 360 0.0 0.0 0.00 0.00 0.00 75 1020.4
20260906063012 73 360 0.0 0.0 0.00 0.00 0.00 77 1020.2
20260906061510 73 360 0.0 0.0 0.00 0.00 0.00 78 1019.9
20260906060006 72 360 0.0 0.0 0.00 0.00 0.00 79 1019.8
20260906054505 71 360 0.0 0.0 0.00 0.00 0.00 80 1019.8
20260906053004 71 360 0.0 0.0 0.00 0.00 0.00 82 1019.7
20260906051502 70 360 0.0 0.0 0.00 0.00 0.00 84 1019.6
20260906050105 70 360 0.0 0.0 0.00 0.00 0.00 85 1019.5
20260906044600 71 360 0.0 0.0 0.00 0.00 0.00 86 1019.3
20260906043055 71 360 0.0 0.0 0.00 0.00 0.00 87 1019.3
20260906041553 71 360 0.0 0.0 0.00 0.00 0.00 87 1019.0
20260906040057 72 360 0.0 0.0 0.00 0.00 0.00 88 1018.8
20260906034552 72 360 0.0 0.0 0.00 0.00 0.00 89 1018.7
20260906033046 73 360 0.0 0.0 0.00 0.00 0.00 89 1018.5
20260906031606 73 360 0.0 0.0 0.00 0.00 0.00 90 1018.4
20260906030045 73 360 0.0 0.0 0.00 0.00 0.00 89 1018.3
20260906024557 73 360 0.0 0.0 0.00 0.00 0.00 89 1018.3
20260906023048 73 360 0.0 0.0 0.00 0.00 0.00 89 1018.3
20260906021544 73 360 0.0 0.0 0.00 0.00 0.00 88 1018.3
20260906020041 73 360 0.0 0.0 0.00 0.00 0.00 89 1018.1
20260906014541 73 360 0.0 0.0 0.00 0.00 0.00 88 1018.1
20260906013041 72 360 0.0 0.0 0.00 0.00 0.00 87 1017.9
20260906011539 72 360 0.0 0.0 0.00 0.00 0.00 87 1018.0
20260906010047 72 360 0.0 0.0 0.00 0.00 0.00 86 1017.9
20260906004543 72 360 0.0 0.0 0.00 0.00 0.00 85 1017.9
20260906003037 72 360 0.0 0.0 0.00 0.00 0.00 85 1017.8
20260906001537 72 360 0.0 0.0 0.00 0.00 0.00 85 1017.8
20260906000035 72 360 0.0 0.0 0.00 0.00 0.00 84 1017.8
20260905234533 73 360 0.0 0.0 0.00 0.00 0.00 84 1017.6
20260905233032 73 360 0.0 0.0 0.00 0.00 0.00 83 1017.6
20260905231530 73 360 0.0 0.0 0.00 0.00 0.00 82 1017.5
20260905230032 74 360 0.0 0.0 0.00 0.00 0.00 82 1017.6
20260905224525 74 360 0.0 0.0 0.00 0.00 0.00 81 1017.5
20260905223024 75 360 0.0 0.0 0.00 0.00 0.00 80 1017.4
20260905221523 75 360 0.0 0.0 0.00 0.00 0.00 79 1017.2
20260905220023 76 360 0.0 0.0 0.00 0.00 0.00 79 1017.2
20260905214518 76 360 0.0 0.0 0.00 0.00 0.00 78 1017.1
20260905213017 76 360 0.0 0.0 0.00 0.00 0.00 77 1016.9
20260905211541 77 360 0.0 0.0 0.00 0.00 0.00 77 1016.9
20260905210017 77 360 0.0 0.0 0.00 0.00 0.00 76 1016.9
20260905204516 78 360 0.0 0.0 0.00 0.00 0.00 75 1016.8
20260905203016 78 360 0.0 0.0 0.00 0.00 0.00 75 1016.8
20260905201514 78 360 0.0 0.0 0.00 0.00 0.00 75 1016.6
20260905200013 78 360 1.0 0.0 0.00 0.00 0.00 75 1016.6
20260905194512 79 360 0.0 0.0 0.00 0.00 0.00 74 1016.4
20260905193011 79 360 0.0 0.0 0.00 0.00 0.00 72 1016.3
20260905191509 80 360 0.0 0.0 0.00 0.00 0.00 71 1016.0
20260905190009 80 360 0.0 0.0 0.00 0.00 0.00 69 1015.9
20260905184509 81 360 0.0 0.0 0.00 0.00 0.00 67 1015.6
20260905183008 82 360 1.0 0.0 0.00 0.00 0.00 66 1015.5
20260905181507 81 360 0.0 0.0 0.00 0.00 0.00 63 1015.2
20260905180007 81 360 0.0 0.0 0.00 0.00 0.00 57 1014.9
20260905174507 82 360 0.0 0.0 0.00 0.00 0.00 55 1014.8
20260905173009 83 360 0.0 0.0 0.00 0.00 0.00 54 1014.6
20260905171506 84 360 0.0 0.0 0.00 0.00 0.00 52 1014.5
20260905170006 85 360 0.0 0.0 0.00 0.00 0.00 51 1014.4
20260905164506 86 360 0.0 0.0 0.00 0.00 0.00 48 1014.4
20260905163005 87 360 0.0 0.0 0.00 0.00 0.00 45 1014.2
20260905161504 88 360 0.0 0.0 0.00 0.00 0.00 43 1014.2
20260905160003 88 360 0.0 0.0 0.00 0.00 0.00 43 1014.2
20260905154503 89 360 0.0 0.0 0.00 0.00 0.00 44 1014.1
20260905153002 89 360 0.0 0.0 0.00 0.00 0.00 44 1013.9
20260905151502 89 360 0.0 0.0 0.00 0.00 0.00 42 1013.9
20260905144600 89 360 0.0 0.0 0.00 0.00 0.00 43 1014.0
20260905143059 89 360 0.0 0.0 0.00 0.00 0.00 44 1014.1
20260905141558 89 360 1.0 0.0 0.00 0.00 0.00 44 1014.3
20260905140056 89 360 0.0 0.0 0.00 0.00 0.00 44 1014.4
20260905134601 90 360 0.0 0.0 0.00 0.00 0.00 45 1014.4
20260905133058 90 360 0.0 0.0 0.00 0.00 0.00 43 1014.6
20260905131557 92 360 0.0 0.0 0.00 0.00 0.00 43 1014.7
20260905130055 92 360 0.0 0.0 0.00 0.00 0.00 45 1014.9
20260905124555 92 360 1.0 0.0 0.00 0.00 0.00 44 1015.1
20260905123054 92 360 0.0 0.0 0.00 0.00 0.00 46 1015.3
20260905121551 91 360 0.0 0.0 0.00 0.00 0.00 45 1015.2
20260905120049 90 360 0.0 0.0 0.00 0.00 0.00 43 1015.4
20260905114548 90 360 0.0 0.0 0.00 0.00 0.00 46 1015.6
20260905113047 90 360 1.0 0.0 0.00 0.00 0.00 46 1015.9
20260905111546 90 360 0.0 0.0 0.00 0.00 0.00 49 1015.8
20260905110057 90 360 0.0 0.0 0.00 0.00 0.00 49 1015.7
20260905104542 89 360 0.0 0.0 0.00 0.00 0.00 46 1015.9
20260905103048 89 360 1.0 0.0 0.00 0.00 0.00 49 1016.0